MMS 1

Last updated on July 5, 2021, 2:16 p.m. UTC

1 40482U 15011C   21185.40959203 -.00001305  00000-0  00000+0 0  9994
2 40482  33.5833 116.5021 8435938  34.0572 110.4493  0.28559962 12306
UTC
Height (km)
Latitude
Longitude
Inclination
Orbital Period
UTC large
Height (km)
Speed (km/s)
/
Latitude / Longitude
Inclination (degrees)
Orbital Period (minutes)
Azimuth
Elevation
Range (km)
Doppler Factor
iOS Compass Heading
iOS Angle